Niagara Falls, NY

10:23 PM EDT on October 19, 2017 (GMT -0400)
Niagara Falls International

Weather History for KIAG - January, 2013

Change the Weather History Date:

Friday, January 25, 2013

  Actual Average Record
Temperature  
Mean Temperature 8 °F -  
Max Temperature 16 °F 27 °F 53 °F (1990)
Min Temperature 0 °F 13 °F -9 °F (2004)
Degree Days  
Heating Degree Days 57    
Moisture  
Dew Point 4 °F    
Average Humidity 76    
Maximum Humidity 87    
Minimum Humidity 62    
Precipitation  
Precipitation 0.00 in - - ()
Snow  
Snow 0.00 in - - ()
Snow Depth 3.00 in    
Sea Level Pressure  
Sea Level Pressure 30.29 in    
Wind  
Wind Speed 4 mph (South)    
Max Wind Speed 8 mph    
Max Gust Speed -    
Visibility 8 miles    
Events Snow    
Averages and records for this station are not official NWS values.
T = Trace of Precipitation, MM = Missing Value Source: NWS Daily Summary

Daily Weather History Graph

Daily Weather History Graph

Search for Another Location

Airport or City:

Trip Planner

Search our weather history database for the weather conditions in past years. The results will help you decide how hot, cold, wet, or windy it might be!

Date:

Astronomy

Jan. 25, 2013 Rise Set
Actual Time 7:37 AM EST 5:19 PM EST
Civil Twilight 7:06 AM EST 5:49 PM EST
Nautical Twilight 6:32 AM EST 6:24 PM EST
Astronomical Twilight 5:58 AM EST 6:58 PM EST
Moon 4:14 PM EST (1/25) 6:16 AM EST (1/25)
Length of Visible Light 10h 43m
Length of Day
9h 41m
Waxing Gibbous, 98% of the Moon is Illuminated
Jan 25
Waxing Gibbous
Jan 26
Full
Feb 3
Last Quarter
Feb 10
New
Feb 17
First Quarter

Hourly Weather History & Observations

Time (EST) Temp. Windchill Dew Point Humidity Pressure Visibility Wind Dir Wind Speed Gust Speed Precip Events Conditions
12:53 AM -0.9 °F -11.0 °F -5.1 °F 83% 30.56 in 6.0 mi West 4.6 mph - 0.00 in Snow Light Snow
1:08 AM 1.4 °F - -4.0 °F 78% 30.46 in 9.0 mi Calm Calm - 0.00 in   Scattered Clouds
1:15 AM 1.4 °F - -2.2 °F 85% 30.46 in 6.0 mi Calm Calm - 0.00 in   Mostly Cloudy
1:41 AM 1.4 °F -11.3 °F -2.2 °F 85% 30.47 in 8.0 mi West 6.9 mph - 0.00 in   Mostly Cloudy
1:53 AM 3.9 °F -9.4 °F -2.9 °F 73% 30.56 in 9.0 mi West 8.1 mph - 0.00 in   Mostly Cloudy
2:53 AM 8.1 °F -0.5 °F 1.0 °F 73% 30.56 in 8.0 mi WSW 4.6 mph - 0.00 in   Overcast
3:08 AM 6.8 °F -2.0 °F 1.4 °F 79% 30.47 in 7.0 mi WSW 4.6 mph - N/A   Overcast
3:22 AM 8.6 °F 0.1 °F 1.4 °F 73% 30.46 in 8.0 mi WSW 4.6 mph - N/A   Overcast
3:53 AM 9.0 °F -0.9 °F 3.0 °F 77% 30.53 in 7.0 mi WSW 5.8 mph - N/A   Overcast
4:02 AM 8.6 °F -1.3 °F 3.2 °F 79% 30.44 in 5.0 mi WSW 5.8 mph - N/A   Haze
4:36 AM 10.4 °F 4.0 °F 3.2 °F 73% 30.41 in 9.0 mi SSW 3.5 mph - 0.00 in   Overcast
4:53 AM 10.0 °F 3.6 °F 3.0 °F 73% 30.48 in 6.0 mi South 3.5 mph - 0.00 in   Haze
5:53 AM 10.9 °F 2.9 °F 3.0 °F 70% 30.47 in 10.0 mi SW 4.6 mph - N/A   Overcast
6:53 AM 10.9 °F 2.9 °F 3.9 °F 73% 30.45 in 10.0 mi South 4.6 mph - N/A   Overcast
7:03 AM 10.4 °F 2.2 °F 3.2 °F 73% 30.37 in 10.0 mi South 4.6 mph - N/A   Overcast
7:27 AM 10.4 °F 4.0 °F 3.2 °F 73% 30.36 in 10.0 mi South 3.5 mph - N/A   Overcast
7:53 AM 10.0 °F 1.8 °F 3.0 °F 73% 30.43 in 10.0 mi SSW 4.6 mph - N/A   Overcast
8:53 AM 12.0 °F 4.1 °F 6.1 °F 77% 30.40 in 10.0 mi SSE 4.6 mph - N/A   Overcast
9:53 AM 12.9 °F 1.6 °F 5.0 °F 71% 30.37 in 10.0 mi SSE 8.1 mph - N/A   Overcast
10:53 AM 14.0 °F 5.1 °F 5.0 °F 67% 30.35 in 10.0 mi SSE 5.8 mph - N/A   Overcast
11:53 AM 15.8 °F 8.6 °F 6.8 °F 68% 30.31 in 10.0 mi South 4.6 mph - N/A   Overcast
12:53 PM 15.8 °F 7.2 °F 5.0 °F 62% 30.27 in 7.0 mi South 5.8 mph - N/A   Overcast
1:53 PM 15.8 °F 8.6 °F 5.0 °F 62% 30.23 in 7.0 mi South 4.6 mph - N/A Snow Light Snow
2:32 PM 15.8 °F 7.2 °F 6.8 °F 68% 30.12 in 5.0 mi SE 5.8 mph - 0.00 in Snow Light Snow
2:47 PM 15.8 °F 7.2 °F 6.8 °F 68% 30.11 in 2.5 mi ESE 5.8 mph - 0.00 in Snow Light Snow
2:53 PM 16.0 °F 6.3 °F 7.0 °F 68% 30.18 in 2.5 mi SSE 6.9 mph - 0.00 in Snow Light Snow
3:11 PM 15.8 °F 8.6 °F 6.8 °F 68% 30.11 in 3.0 mi ESE 4.6 mph - 0.00 in Snow Light Snow
3:53 PM 16.0 °F 7.4 °F 8.1 °F 71% 30.17 in 5.0 mi ESE 5.8 mph - 0.00 in Snow Light Snow
4:53 PM 15.1 °F 9.4 °F 9.0 °F 77% 30.15 in 8.0 mi SE 3.5 mph - 0.00 in Snow Light Snow
5:33 PM 14.0 °F 8.2 °F 6.8 °F 73% 30.07 in 10.0 mi ESE 3.5 mph - 0.00 in   Mostly Cloudy
5:53 PM 14.0 °F - 7.0 °F 74% 30.14 in 10.0 mi Calm Calm - 0.00 in   Mostly Cloudy
6:39 PM 12.2 °F 6.1 °F 8.6 °F 85% 30.07 in 10.0 mi East 3.5 mph - 0.00 in Snow Light Snow
6:53 PM 12.9 °F - 7.0 °F 77% 30.14 in 10.0 mi Calm Calm - 0.00 in Snow Light Snow
7:53 PM 10.9 °F - 7.0 °F 84% 30.14 in 10.0 mi Calm Calm - 0.00 in Snow Light Snow
8:13 PM 10.4 °F 0.8 °F 6.8 °F 85% 30.06 in 10.0 mi East 5.8 mph - 0.00 in   Mostly Cloudy
8:53 PM 10.9 °F 4.7 °F 7.0 °F 84% 30.13 in 10.0 mi East 3.5 mph - 0.00 in   Mostly Cloudy
9:15 PM 8.6 °F 2.0 °F 5.0 °F 85% 30.06 in 10.0 mi East 3.5 mph - 0.00 in Snow Light Snow
9:53 PM 10.0 °F 3.6 °F 6.1 °F 84% 30.14 in 10.0 mi ENE 3.5 mph - 0.00 in Snow Light Snow
10:42 PM 6.8 °F - 3.2 °F 85% 30.07 in 10.0 mi Calm Calm - 0.00 in   Scattered Clouds
10:53 PM 6.1 °F - 3.0 °F 87% 30.14 in 10.0 mi Calm Calm - 0.00 in   Scattered Clouds
11:53 PM 7.0 °F - 3.9 °F 87% 30.15 in 8.0 mi Calm Calm - N/A   Overcast